contact:dominique.lefevre@mio.osupytheas.fr, maurice.libes@osupytheas.fr, didier.mallarino@osupytheas.fr
Project:EMSO http://www.emso-fr.org/EMSO-France
Depth: 2436.0 m
Title:EMSO Ligure Ouest : Data MII capteur AQUADOPP
Date,Latitude,Longitude,X_East,Y_North,Z_Up,Amplitude_X,Amplitude_Y,Amplitude_Z,Batterie,SoundSpeed,Heading,Pitch,Roll,Pressure,TIS,Speed,Direction
, degrees North, degrees East, m.s-1, m.s-1,m.s-1, 1, 1, 1, Volt, m.s-1, degree, degree, degree, dbar, degree_C, m.s-1, degree
2021-11-18T13:37:02,42.805,6.029,-0.042,0.012,-0.031,100.0,100.0,101.0,13.4,1505.1,327.3,-0.8,1.8,2470.756,13.27,0.043,285.9
2021-11-18T13:40:03,42.805,6.029,-0.056,0.016,-0.013,101.0,100.0,100.0,13.4,1505.1,327.1,-0.8,1.8,2470.677,13.27,0.058,285.9
2021-11-18T13:43:03,42.805,6.029,-0.021,0.01,-0.02,101.0,100.0,100.0,13.4,1505.2,327.8,-0.7,1.8,2470.609,13.28,0.023,295.5
2021-11-18T13:46:03,42.805,6.029,-0.031,0.023,-0.031,101.0,100.0,100.0,13.4,1505.2,329.4,-0.7,1.8,2470.54,13.28,0.038,306.6
2021-11-18T13:49:03,42.805,6.029,-0.036,0.027,-0.029,101.0,102.0,100.0,13.4,1505.2,330.0,-0.8,1.8,2470.504,13.28,0.045,306.9
2021-11-18T13:52:03,42.805,6.029,-0.017,0.032,-0.019,102.0,102.0,99.0,13.4,1505.2,329.3,-0.7,1.8,2470.475,13.28,0.036,332.0
2021-11-18T13:55:03,42.805,6.029,-0.042,0.029,0.001,101.0,101.0,101.0,13.4,1505.2,328.1,-0.7,1.8,2470.488,13.28,0.051,304.6
2021-11-18T13:58:03,42.805,6.029,-0.035,0.016,-0.022,100.0,100.0,100.0,13.4,1505.2,328.5,-0.7,1.9,2470.458,13.28,0.038,294.6
2021-11-18T14:04:03,42.805,6.029,-0.031,0.034,0.0,102.0,100.0,100.0,13.4,1505.2,325.4,-0.8,1.8,2470.513,13.28,0.046,317.6
2021-11-18T14:07:03,42.805,6.029,-0.025,-0.003,-0.022,100.0,100.0,101.0,13.3,1505.2,331.1,-0.7,1.8,2470.515,13.28,0.025,263.2
2021-11-18T14:10:03,42.805,6.029,-0.029,0.02,-0.033,101.0,101.0,101.0,13.4,1505.2,324.7,-0.7,1.8,2470.494,13.28,0.035,304.6
2021-11-18T14:13:03,42.805,6.029,-0.033,0.004,-0.023,100.0,100.0,100.0,13.4,1505.2,328.6,-0.7,1.8,2470.475,13.28,0.033,276.9
2021-11-18T14:16:03,42.805,6.029,-0.033,0.014,0.018,100.0,100.0,100.0,13.4,1505.2,326.3,-0.8,1.8,2470.5,13.28,0.035,293.0
2021-11-18T14:19:03,42.805,6.029,-0.034,0.019,-0.041,100.0,100.0,101.0,13.4,1505.2,330.7,-0.8,1.8,2470.484,13.28,0.038,299.2
2021-11-18T14:22:03,42.805,6.029,-0.037,0.021,-0.032,99.0,100.0,100.0,13.4,1505.2,330.3,-0.7,1.8,2470.486,13.28,0.042,299.6
2021-11-18T14:25:03,42.805,6.029,-0.028,0.006,-0.017,100.0,100.0,101.0,13.4,1505.2,327.0,-0.7,1.8,2470.481,13.28,0.028,282.1
2021-11-18T14:28:03,42.805,6.029,-0.031,0.003,-0.022,101.0,100.0,101.0,13.4,1505.2,329.4,-0.7,1.9,2470.509,13.28,0.031,275.5
2021-11-18T14:31:03,42.805,6.029,-0.045,0.038,-0.002,102.0,101.0,102.0,13.4,1505.2,329.2,-0.8,1.8,2470.509,13.28,0.058,310.2
2021-11-18T14:34:03,42.805,6.029,-0.051,0.006,-0.035,100.0,100.0,100.0,13.4,1505.2,325.2,-0.7,1.8,2470.528,13.28,0.051,276.7
2021-11-18T14:37:03,42.805,6.029,-0.029,0.006,-0.034,101.0,101.0,100.0,13.3,1505.2,332.1,-0.7,1.8,2470.526,13.28,0.029,281.7
2021-11-18T14:40:03,42.805,6.029,-0.051,0.02,-0.045,101.0,101.0,100.0,13.4,1505.2,326.2,-0.8,1.8,2470.506,13.28,0.054,291.4
2021-11-18T14:43:03,42.805,6.029,-0.044,0.028,-0.011,101.0,100.0,100.0,13.4,1505.2,328.3,-0.7,1.8,2470.542,13.28,0.052,302.5
2021-11-18T14:46:03,42.805,6.029,-0.018,0.013,0.003,100.0,101.0,100.0,13.4,1505.2,327.7,-0.7,1.9,2470.548,13.28,0.022,305.8
2021-11-18T14:49:03,42.805,6.029,-0.036,0.013,-0.027,101.0,100.0,100.0,13.4,1505.2,327.6,-0.7,1.8,2470.512,13.28,0.038,289.9
2021-11-18T14:52:03,42.805,6.029,-0.045,0.023,-0.017,100.0,101.0,100.0,13.3,1505.2,326.3,-0.8,1.9,2470.557,13.28,0.05,297.1
2021-11-18T14:55:03,42.805,6.029,-0.046,0.017,-0.042,100.0,102.0,99.0,13.3,1505.2,327.0,-0.8,1.8,2470.57,13.28,0.049,290.3
2021-11-18T14:58:03,42.805,6.029,-0.031,0.018,-0.013,101.0,101.0,100.0,13.3,1505.2,326.3,-0.8,1.8,2470.539,13.28,0.035,300.1
2021-11-18T15:04:03,42.805,6.029,-0.028,0.026,-0.023,100.0,100.0,99.0,13.3,1505.2,331.1,-0.8,1.8,2470.618,13.28,0.038,312.9
2021-11-18T15:07:03,42.805,6.029,-0.027,0.01,-0.031,101.0,100.0,100.0,13.4,1505.2,326.0,-0.8,1.8,2470.6,13.28,0.028,290.3
2021-11-18T15:10:03,42.805,6.029,-0.048,0.019,-0.04,101.0,101.0,100.0,13.4,1505.2,327.7,-0.8,1.9,2470.585,13.28,0.051,291.6
2021-11-18T15:13:03,42.805,6.029,-0.032,0.009,-0.03,100.0,101.0,100.0,13.4,1505.2,326.1,-0.8,1.8,2470.592,13.28,0.033,285.7
2021-11-18T15:16:03,42.805,6.029,-0.03,0.01,-0.027,101.0,101.0,100.0,13.4,1505.2,326.4,-0.7,1.8,2470.601,13.28,0.031,288.4
2021-11-18T15:19:03,42.805,6.029,-0.035,0.012,-0.038,101.0,101.0,100.0,13.4,1505.2,328.1,-0.8,1.8,2470.567,13.28,0.037,288.9
2021-11-18T15:22:03,42.805,6.029,-0.02,-0.003,-0.025,100.0,100.0,101.0,13.4,1505.2,328.8,-0.8,1.8,2470.613,13.28,0.02,261.5
2021-11-18T15:25:03,42.805,6.029,-0.044,0.008,-0.035,100.0,101.0,100.0,13.4,1505.2,326.4,-0.7,1.8,2470.577,13.28,0.044,280.3
2021-11-18T15:28:03,42.805,6.029,-0.029,0.0,-0.051,100.0,101.0,100.0,13.3,1505.2,328.4,-0.7,1.8,2470.603,13.28,0.028,270.0
2021-11-18T15:31:03,42.805,6.029,-0.059,0.024,-0.03,102.0,100.0,100.0,13.4,1505.2,328.6,-0.7,1.8,2470.607,13.28,0.063,292.1
2021-11-18T15:34:03,42.805,6.029,-0.01,0.004,-0.04,101.0,100.0,100.0,13.4,1505.2,330.1,-0.8,1.8,2470.605,13.28,0.01,291.8
2021-11-18T15:37:03,42.805,6.029,-0.042,0.022,-0.032,101.0,100.0,100.0,13.4,1505.2,330.0,-0.7,1.8,2470.581,13.28,0.047,297.6
2021-11-18T15:40:03,42.805,6.029,-0.043,-0.008,-0.023,100.0,100.0,100.0,13.4,1505.2,329.2,-0.7,1.8,2470.616,13.28,0.043,259.5
2021-11-18T15:43:03,42.805,6.029,-0.032,0.008,-0.024,101.0,101.0,100.0,13.3,1505.2,329.2,-0.8,1.8,2470.593,13.28,0.032,284.0
2021-11-18T15:46:03,42.805,6.029,-0.046,0.028,-0.013,101.0,101.0,100.0,13.4,1505.2,328.3,-0.7,1.8,2470.601,13.28,0.053,301.3
2021-11-18T15:49:03,42.805,6.029,-0.049,0.026,-0.018,101.0,101.0,100.0,13.4,1505.2,328.2,-0.8,1.8,2470.596,13.28,0.055,297.9
2021-11-18T15:52:03,42.805,6.029,-0.04,0.022,-0.03,102.0,100.0,101.0,13.4,1505.2,328.9,-0.7,1.8,2470.639,13.28,0.045,298.8
2021-11-18T15:55:03,42.805,6.029,-0.051,0.018,-0.047,100.0,100.0,100.0,13.4,1505.2,331.2,-0.8,1.8,2470.609,13.28,0.054,289.4
2021-11-18T15:58:03,42.805,6.029,-0.048,0.003,-0.025,101.0,101.0,101.0,13.4,1505.2,329.5,-0.7,1.8,2470.611,13.28,0.048,273.6
2021-11-18T16:04:03,42.805,6.029,-0.033,0.0,-0.023,100.0,101.0,100.0,13.3,1505.2,329.2,-0.7,1.8,2470.65,13.28,0.033,270.0
2021-11-18T16:07:03,42.805,6.029,-0.024,0.019,-0.001,101.0,101.0,100.0,13.3,1505.2,326.0,-0.8,1.8,2470.654,13.28,0.03,308.4
2021-11-18T16:10:03,42.805,6.029,-0.03,-0.01,-0.041,101.0,100.0,100.0,13.3,1505.2,327.6,-0.8,1.8,2470.657,13.28,0.031,251.6
2021-11-18T16:13:03,42.805,6.029,-0.041,0.023,-0.049,101.0,100.0,101.0,13.4,1505.2,325.6,-0.7,1.8,2470.656,13.28,0.047,299.3
2021-11-18T16:16:03,42.805,6.029,-0.06,0.021,-0.037,101.0,101.0,100.0,13.4,1505.2,327.0,-0.7,1.8,2470.632,13.28,0.063,289.3
2021-11-18T16:19:03,42.805,6.029,-0.049,0.023,-0.042,101.0,100.0,100.0,13.4,1505.2,328.1,-0.8,1.8,2470.64,13.28,0.054,295.1
2021-11-18T16:22:03,42.805,6.029,-0.052,0.014,-0.035,101.0,100.0,100.0,13.4,1505.2,325.0,-0.7,1.8,2470.666,13.28,0.053,285.1
2021-11-18T16:25:03,42.805,6.029,-0.042,0.0,-0.062,101.0,101.0,100.0,13.3,1505.2,329.9,-0.8,1.8,2470.62,13.28,0.042,270.0
2021-11-18T16:28:03,42.805,6.029,-0.033,-0.008,-0.053,102.0,99.0,99.0,13.4,1505.2,329.8,-0.8,1.8,2470.627,13.28,0.033,256.4
2021-11-18T16:31:03,42.805,6.029,0.0,0.008,-0.006,100.0,101.0,100.0,13.3,1505.2,331.4,-0.8,1.8,2470.616,13.28,0.008,0.0
2021-11-18T16:34:03,42.805,6.029,-0.024,0.006,-0.033,102.0,99.0,100.0,13.3,1505.2,329.7,-0.7,1.8,2470.62,13.28,0.024,284.0
2021-11-18T16:37:03,42.805,6.029,-0.017,-0.011,-0.037,100.0,101.0,99.0,13.3,1505.2,324.6,-0.8,1.8,2470.63,13.28,0.02,237.1
2021-11-18T16:40:03,42.805,6.029,-0.043,-0.012,-0.065,100.0,102.0,101.0,13.4,1505.2,325.6,-0.7,1.8,2470.633,13.28,0.044,254.4
2021-11-18T16:43:03,42.805,6.029,-0.041,-0.004,-0.042,100.0,101.0,100.0,13.4,1505.2,325.1,-0.8,1.8,2470.63,13.28,0.041,264.4
2021-11-18T16:46:03,42.805,6.029,-0.022,0.005,-0.059,101.0,101.0,100.0,13.3,1505.2,332.1,-0.7,1.9,2470.633,13.28,0.022,282.8
2021-11-18T16:49:03,42.805,6.029,-0.018,-0.001,-0.038,101.0,101.0,100.0,13.3,1505.2,326.7,-0.7,1.8,2470.679,13.28,0.018,266.8
2021-11-18T16:52:03,42.805,6.029,-0.043,0.003,-0.032,100.0,101.0,101.0,13.3,1505.2,325.4,-0.7,1.8,2470.673,13.28,0.043,274.0
2021-11-18T16:55:03,42.805,6.029,-0.034,-0.011,-0.051,102.0,100.0,100.0,13.3,1505.2,325.8,-0.8,1.8,2470.612,13.28,0.035,252.1
2021-11-18T16:58:03,42.805,6.029,-0.071,0.009,-0.04,100.0,99.0,100.0,13.3,1505.2,325.2,-0.8,1.8,2470.62,13.28,0.071,277.2
2021-11-18T17:04:03,42.805,6.029,-0.043,-0.001,-0.045,100.0,101.0,101.0,13.4,1505.2,327.3,-0.8,1.8,2470.654,13.28,0.043,268.7
2021-11-18T17:07:03,42.805,6.029,-0.036,-0.005,-0.037,102.0,102.0,100.0,13.4,1505.2,327.7,-0.7,1.9,2470.707,13.28,0.036,262.1
2021-11-18T17:10:03,42.805,6.029,-0.055,0.014,-0.061,100.0,100.0,100.0,13.4,1505.2,326.3,-0.8,1.8,2470.697,13.28,0.056,284.3
2021-11-18T17:13:03,42.805,6.029,-0.046,-0.001,-0.054,101.0,101.0,100.0,13.4,1505.2,330.4,-0.8,1.8,2470.673,13.28,0.046,268.8
2021-11-18T17:16:03,42.805,6.029,-0.037,-0.015,-0.092,101.0,100.0,100.0,13.4,1505.2,331.7,-0.7,1.8,2470.673,13.28,0.039,247.9
2021-11-18T17:19:03,42.805,6.029,-0.04,0.002,-0.047,100.0,100.0,101.0,13.3,1505.2,328.9,-0.7,1.8,2470.67,13.28,0.04,272.9
2021-11-18T17:22:03,42.805,6.029,-0.042,0.0,-0.055,99.0,103.0,100.0,13.4,1505.2,331.9,-0.7,1.8,2470.674,13.28,0.042,270.0
2021-11-18T17:25:03,42.805,6.029,-0.017,0.009,-0.02,102.0,100.0,100.0,13.4,1505.2,330.9,-0.7,1.8,2470.642,13.28,0.019,297.9
2021-11-18T17:28:03,42.805,6.029,-0.027,-0.019,-0.029,103.0,99.0,99.0,13.4,1505.2,327.2,-0.8,1.8,2470.681,13.28,0.033,234.9
2021-11-18T17:31:03,42.805,6.029,-0.041,-0.004,-0.039,103.0,100.0,100.0,13.3,1505.2,326.1,-0.8,1.8,2470.671,13.28,0.041,264.4
2021-11-18T17:34:03,42.805,6.029,-0.029,0.019,-0.015,101.0,101.0,100.0,13.4,1505.2,326.8,-0.7,1.8,2470.68,13.28,0.034,303.2
2021-11-18T17:37:03,42.805,6.029,-0.051,0.014,-0.048,101.0,102.0,101.0,13.4,1505.2,327.1,-0.8,1.8,2470.665,13.28,0.052,285.3
2021-11-18T17:40:03,42.805,6.029,-0.043,-0.006,-0.05,102.0,101.0,100.0,13.4,1505.2,329.3,-0.7,1.9,2470.689,13.28,0.043,262.1
2021-11-18T17:43:03,42.805,6.029,-0.047,0.01,-0.039,102.0,101.0,99.0,13.4,1505.2,325.6,-0.8,1.8,2470.674,13.28,0.048,282.0
2021-11-18T17:46:03,42.805,6.029,-0.036,0.018,-0.018,100.0,100.0,100.0,13.3,1505.2,330.8,-0.8,1.8,2470.659,13.28,0.04,296.6
2021-11-18T17:49:03,42.805,6.029,-0.023,0.011,-0.022,100.0,100.0,101.0,13.3,1505.2,328.3,-0.8,1.8,2470.677,13.28,0.025,295.6
2021-11-18T17:52:03,42.805,6.029,-0.021,0.009,0.006,101.0,101.0,101.0,13.4,1505.2,331.2,-0.8,1.8,2470.683,13.28,0.022,293.2
2021-11-18T17:55:03,42.805,6.029,-0.039,0.0,-0.031,101.0,100.0,101.0,13.3,1505.2,329.3,-0.8,1.8,2470.681,13.28,0.039,270.0
2021-11-18T17:58:03,42.805,6.029,-0.052,0.009,-0.036,101.0,100.0,101.0,13.4,1505.2,330.2,-0.8,1.8,2470.669,13.28,0.052,279.8
2021-11-18T18:04:03,42.805,6.029,-0.056,0.008,-0.062,101.0,101.0,100.0,13.4,1505.2,325.7,-0.8,1.8,2470.715,13.28,0.056,278.1
2021-11-18T18:07:03,42.805,6.029,-0.034,0.007,-0.034,101.0,101.0,100.0,13.4,1505.2,329.5,-0.7,1.8,2470.758,13.28,0.034,281.6
2021-11-18T18:10:03,42.805,6.029,-0.053,0.006,-0.031,101.0,100.0,101.0,13.3,1505.2,326.9,-0.7,1.9,2470.729,13.28,0.053,276.5
2021-11-18T18:13:03,42.805,6.029,-0.033,0.014,-0.032,102.0,100.0,101.0,13.3,1505.2,329.2,-0.8,1.8,2470.698,13.28,0.035,293.0
2021-11-18T18:16:03,42.805,6.029,-0.024,0.007,-0.028,101.0,100.0,100.0,13.4,1505.2,329.6,-0.7,1.8,2470.654,13.28,0.025,286.3
2021-11-18T18:19:03,42.805,6.029,-0.06,0.009,-0.05,102.0,100.0,100.0,13.4,1505.2,330.6,-0.8,1.9,2470.695,13.28,0.06,278.5
2021-11-18T18:22:03,42.805,6.029,-0.063,0.036,-0.01,98.0,100.0,101.0,13.4,1505.2,330.1,-0.7,1.8,2470.683,13.28,0.072,299.7
2021-11-18T18:25:03,42.805,6.029,-0.031,-0.003,-0.026,101.0,101.0,100.0,13.4,1505.2,326.6,-0.7,1.8,2470.717,13.28,0.031,264.5
2021-11-18T18:28:03,42.805,6.029,-0.037,0.016,-0.029,101.0,100.0,100.0,13.4,1505.2,326.4,-0.8,1.8,2470.654,13.28,0.04,293.4
2021-11-18T18:31:03,42.805,6.029,-0.038,0.009,-0.061,100.0,102.0,101.0,13.4,1505.2,326.3,-0.8,1.8,2470.696,13.28,0.039,283.3
2021-11-18T18:34:03,42.805,6.029,-0.039,0.027,-0.025,100.0,100.0,100.0,13.4,1505.2,331.7,-0.7,1.8,2470.661,13.28,0.047,304.7
2021-11-18T18:37:03,42.805,6.029,-0.052,0.029,-0.042,101.0,100.0,100.0,13.4,1505.2,329.5,-0.7,1.8,2470.682,13.28,0.059,299.1
2021-11-18T18:40:03,42.805,6.029,-0.044,0.004,-0.01,101.0,100.0,101.0,13.3,1505.2,327.9,-0.7,1.8,2470.7,13.28,0.044,275.2
2021-11-18T18:43:03,42.805,6.029,-0.045,0.031,-0.011,102.0,99.0,100.0,13.3,1505.2,328.7,-0.8,1.8,2470.694,13.28,0.054,304.6
2021-11-18T18:46:03,42.805,6.029,-0.075,0.02,-0.059,102.0,101.0,99.0,13.4,1505.2,327.4,-0.8,1.8,2470.723,13.28,0.077,284.9
2021-11-18T18:49:03,42.805,6.029,-0.023,0.004,-0.02,100.0,102.0,100.0,13.3,1505.2,325.4,-0.8,1.8,2470.706,13.28,0.023,279.9
2021-11-18T18:52:03,42.805,6.029,-0.041,0.006,0.0,102.0,100.0,101.0,13.4,1505.2,328.9,-0.7,1.8,2470.668,13.28,0.041,278.3
2021-11-18T18:55:03,42.805,6.029,-0.024,0.0,-0.016,101.0,100.0,100.0,13.4,1505.2,325.7,-0.7,1.8,2470.698,13.28,0.024,270.0
2021-11-18T18:58:03,42.805,6.029,-0.047,0.007,-0.03,101.0,99.0,101.0,13.4,1505.2,329.3,-0.7,1.8,2470.64,13.28,0.047,278.5
2021-11-18T19:04:03,42.805,6.029,-0.039,0.003,-0.034,101.0,100.0,100.0,13.4,1505.2,327.4,-0.8,1.8,2470.743,13.28,0.039,274.4
2021-11-18T19:07:03,42.805,6.029,-0.039,0.015,-0.031,101.0,101.0,100.0,13.4,1505.2,331.0,-0.7,1.8,2470.756,13.28,0.041,291.0
2021-11-18T19:10:03,42.805,6.029,-0.011,-0.003,-0.012,101.0,99.0,100.0,13.4,1505.2,330.8,-0.8,1.8,2470.685,13.28,0.011,254.7
2021-11-18T19:13:03,42.805,6.029,-0.05,0.012,-0.032,102.0,100.0,99.0,13.4,1505.2,325.6,-0.8,1.8,2470.676,13.28,0.051,283.5
